TimeCST,TemperatureF,Dew PointF,Humidity,Sea Level PressureIn,VisibilityMPH,Wind Direction,Wind SpeedMPH,Gust SpeedMPH,PrecipitationIn,Events,Conditions,WindDirDegrees,DateUTC
12:35 AM,69.8,64.4,83,29.95,10.0,SSE,5.8,16.1,N/A,,Clear,160,2012-11-11 06:35:00
12:55 AM,69.8,64.4,83,29.96,10.0,SSE,4.6,-,N/A,,Partly Cloudy,150,2012-11-11 06:55:00
1:15 AM,69.8,64.4,83,29.95,10.0,SSE,9.2,-,N/A,,Scattered Clouds,150,2012-11-11 07:15:00
1:55 AM,69.8,64.4,83,29.95,10.0,SSE,6.9,-,N/A,,Mostly Cloudy,150,2012-11-11 07:55:00
2:15 AM,69.8,64.4,83,29.94,10.0,Calm,Calm,-,N/A,,Mostly Cloudy,0,2012-11-11 08:15:00
2:35 AM,69.8,64.4,83,29.94,10.0,SSE,8.1,-,N/A,,Overcast,160,2012-11-11 08:35:00
2:55 AM,71.6,64.4,78,29.94,10.0,SSE,4.6,-,N/A,,Overcast,150,2012-11-11 08:55:00
3:15 AM,71.6,66.2,83,29.94,10.0,Calm,Calm,-,N/A,,Overcast,0,2012-11-11 09:15:00
3:35 AM,71.6,66.2,83,29.93,10.0,SSE,3.5,-,N/A,,Overcast,150,2012-11-11 09:35:00
3:55 AM,71.6,66.2,83,29.93,10.0,Calm,Calm,-,N/A,,Mostly Cloudy,0,2012-11-11 09:55:00
4:15 AM,71.6,66.2,83,29.93,10.0,Calm,Calm,-,N/A,,Overcast,0,2012-11-11 10:15:00
4:55 AM,71.6,66.2,83,29.93,10.0,SE,6.9,-,N/A,,Mostly Cloudy,140,2012-11-11 10:55:00
5:35 AM,69.8,66.2,88,29.94,4.0,SSE,3.5,-,N/A,,Overcast,150,2012-11-11 11:35:00
5:55 AM,69.8,66.2,88,29.94,2.5,South,4.6,-,N/A,,Overcast,170,2012-11-11 11:55:00
6:15 AM,69.8,66.2,88,29.95,3.0,South,4.6,-,N/A,,Overcast,180,2012-11-11 12:15:00
6:55 AM,69.8,68.0,94,29.95,8.0,Calm,Calm,-,N/A,,Mostly Cloudy,0,2012-11-11 12:55:00
7:15 AM,69.8,68.0,94,29.95,9.0,SSE,3.5,-,N/A,,Mostly Cloudy,160,2012-11-11 13:15:00
7:55 AM,69.8,68.0,94,29.96,8.0,SSE,8.1,-,N/A,,Mostly Cloudy,160,2012-11-11 13:55:00
8:55 AM,71.6,69.8,94,29.98,8.0,South,9.2,-,N/A,,Mostly Cloudy,170,2012-11-11 14:55:00
9:35 AM,73.4,69.8,88,30.00,9.0,South,4.6,-,N/A,,Mostly Cloudy,180,2012-11-11 15:35:00
9:55 AM,73.4,69.8,88,29.99,9.0,SSE,6.9,-,N/A,,Scattered Clouds,160,2012-11-11 15:55:00
10:15 AM,75.2,69.8,83,29.98,9.0,South,9.2,-,N/A,,Scattered Clouds,170,2012-11-11 16:15:00
10:35 AM,77.0,69.8,78,29.98,9.0,South,13.8,18.4,N/A,,Partly Cloudy,190,2012-11-11 16:35:00
10:55 AM,77.0,69.8,78,29.98,10.0,South,12.7,18.4,N/A,,Mostly Cloudy,180,2012-11-11 16:55:00
11:15 AM,77.0,69.8,78,29.98,10.0,South,9.2,-,N/A,,Mostly Cloudy,190,2012-11-11 17:15:00
11:35 AM,78.8,68.0,69,29.97,10.0,South,11.5,16.1,N/A,,Partly Cloudy,180,2012-11-11 17:35:00
11:55 AM,78.8,66.2,65,29.96,10.0,South,10.4,17.3,N/A,,Partly Cloudy,190,2012-11-11 17:55:00
12:15 PM,78.8,66.2,65,29.95,10.0,South,10.4,16.1,N/A,,Clear,180,2012-11-11 18:15:00
12:35 PM,78.8,66.2,65,29.93,10.0,South,13.8,18.4,N/A,,Clear,190,2012-11-11 18:35:00
12:55 PM,78.8,66.2,65,29.93,10.0,South,10.4,20.7,N/A,,Partly Cloudy,180,2012-11-11 18:55:00
1:15 PM,78.8,66.2,65,29.92,10.0,South,12.7,18.4,N/A,,Scattered Clouds,190,2012-11-11 19:15:00
1:35 PM,78.8,66.2,65,29.91,10.0,South,11.5,18.4,N/A,,Partly Cloudy,180,2012-11-11 19:35:00
1:55 PM,80.6,66.2,61,29.92,10.0,SSW,15.0,19.6,N/A,,Clear,200,2012-11-11 19:55:00
2:15 PM,80.6,66.2,61,29.92,10.0,South,12.7,17.3,N/A,,Clear,190,2012-11-11 20:15:00
2:35 PM,80.6,66.2,61,29.92,10.0,South,12.7,18.4,N/A,,Clear,190,2012-11-11 20:35:00
2:55 PM,78.8,66.2,65,29.92,10.0,SSW,5.8,-,N/A,,Partly Cloudy,200,2012-11-11 20:55:00
3:15 PM,77.0,66.2,69,29.94,10.0,South,11.5,21.9,N/A,,Scattered Clouds,180,2012-11-11 21:15:00
3:35 PM,75.2,68.0,78,29.94,10.0,SSE,6.9,-,N/A,,Mostly Cloudy,160,2012-11-11 21:35:00
3:55 PM,75.2,66.2,73,29.94,10.0,South,3.5,-,N/A,,Partly Cloudy,170,2012-11-11 21:55:00
4:15 PM,73.4,66.2,78,29.94,10.0,Calm,Calm,-,N/A,,Clear,0,2012-11-11 22:15:00
4:55 PM,73.4,68.0,83,29.96,10.0,Calm,Calm,-,N/A,,Mostly Cloudy,0,2012-11-11 22:55:00
5:15 PM,73.4,68.0,83,29.96,10.0,Calm,Calm,-,N/A,,Partly Cloudy,0,2012-11-11 23:15:00
5:35 PM,73.4,68.0,83,29.98,10.0,West,4.6,-,N/A,,Partly Cloudy,270,2012-11-11 23:35:00
5:55 PM,66.2,57.2,73,30.02,10.0,NNW,10.4,25.3,N/A,,Mostly Cloudy,330,2012-11-11 23:55:00
6:15 PM,64.4,53.6,68,30.05,10.0,NNW,10.4,16.1,N/A,,Light Drizzle,340,2012-11-12 00:15:00
6:35 PM,62.6,53.6,72,30.06,10.0,North,9.2,-,N/A,,Mostly Cloudy,360,2012-11-12 00:35:00
7:15 PM,60.8,48.2,63,30.07,10.0,North,10.4,-,N/A,,Overcast,10,2012-11-12 01:15:00
7:55 PM,60.8,48.2,63,30.09,10.0,North,9.2,-,N/A,,Overcast,350,2012-11-12 01:55:00
8:15 PM,59.0,48.2,67,30.12,9.0,Calm,Calm,-,N/A,,Overcast,0,2012-11-12 02:15:00
8:35 PM,57.2,51.8,82,30.14,3.0,Calm,Calm,-,0.01,Rain,Rain,0,2012-11-12 02:35:00
8:55 PM,55.4,53.6,94,30.15,4.0,Calm,Calm,-,0.04,Rain,Light Rain,0,2012-11-12 02:55:00
9:15 PM,55.4,53.6,94,30.16,5.0,NE,3.5,-,0.02,Rain,Light Rain,50,2012-11-12 03:15:00
9:35 PM,55.4,53.6,94,30.17,10.0,Calm,Calm,-,0.03,,Overcast,0,2012-11-12 03:35:00
9:55 PM,55.4,53.6,94,30.17,10.0,NNE,3.5,-,0.03,,Light Drizzle,20,2012-11-12 03:55:00
10:15 PM,55.4,53.6,94,30.19,8.0,Calm,Calm,-,N/A,,Overcast,0,2012-11-12 04:15:00
10:35 PM,55.4,53.6,94,30.21,5.0,Calm,Calm,-,0.01,Rain,Light Rain,0,2012-11-12 04:35:00
10:55 PM,55.4,53.6,94,30.23,3.0,Calm,Calm,-,0.05,Rain,Light Rain,0,2012-11-12 04:55:00
11:35 PM,55.4,53.6,94,30.23,8.0,Calm,Calm,-,0.02,,Overcast,0,2012-11-12 05:35:00
11:55 PM,55.4,53.6,94,30.24,10.0,North,8.1,-,0.02,,Overcast,360,2012-11-12 05:55:00